This is the latest recevied weather packets stored in our database for station/object 4S6DRJ-13. If no packets are shown the sender has not sent any weather packets the latest 10 day(s).
| Time | Temp. | Humidity | Pressure | Rain* | Wind** | Luminosity | Snow |
|---|---|---|---|---|---|---|---|
| 1788096738 | 28.33° C | 79% | 1009.3 hPa | 0 mm | 1.79 m/s, 243° | 0 W/m² | - |
| 1788096682 | 28.33° C | 79% | 1009.3 hPa | 0 mm | 2.24 m/s, 220° | 0 W/m² | - |
| 1788096616 | 28.33° C | 79% | 1009.1 hPa | 0 mm | 0 m/s | 0 W/m² | - |
| 1788096555 | 28.33° C | 79% | 1009.2 hPa | 0 mm | 1.34 m/s, 197° | 0 W/m² | - |
| 1788096494 | 28.33° C | 79% | 1009.3 hPa | 0 mm | 0.89 m/s, 252° | 0 W/m² | - |
| 1788096433 | 28.33° C | 79% | 1009.2 hPa | 0 mm | 2.24 m/s, 245° | 0 W/m² | - |
| 1788096372 | 28.33° C | 79% | 1009.2 hPa | 0 mm | 0.89 m/s, 307° | 0 W/m² | - |
| 1788096311 | 28.33° C | 79% | 1009.1 hPa | 0 mm | 0.45 m/s, 30° | 0 W/m² | - |
| 1788096250 | 28.33° C | 79% | 1009.1 hPa | 0 mm | 0.89 m/s, 196° | 0 W/m² | - |
| 1788096189 | 28.33° C | 79% | 1009.1 hPa | 0 mm | 0.45 m/s, 264° | 0 W/m² | - |
| 1788096128 | 28.33° C | 79% | 1009.1 hPa | 0 mm | 1.34 m/s, 62° | 0 W/m² | - |
| 1788096067 | 28.33° C | 79% | 1009.2 hPa | 0 mm | 1.79 m/s, 230° | 0 W/m² | - |
| 1788096008 | 28.33° C | 79% | 1009.2 hPa | 0 mm | 1.34 m/s, 244° | 0 W/m² | - |
| 1788095945 | 28.33° C | 79% | 1009.3 hPa | 0 mm | 1.79 m/s, 269° | 0 W/m² | - |
| 1788095884 | 28.33° C | 79% | 1009 hPa | 0 mm | 0.45 m/s, 132° | 0 W/m² | - |
| 1788095824 | 28.33° C | 79% | 1009 hPa | 0 mm | 0.89 m/s, 221° | 0 W/m² | - |
| 1788095762 | 28.33° C | 79% | 1009 hPa | 0 mm | 0.89 m/s, 255° | 0 W/m² | - |
| 1788095701 | 28.33° C | 79% | 1009 hPa | 0 mm | 0.45 m/s, 285° | 0 W/m² | - |
| 1788095640 | 28.33° C | 79% | 1008.9 hPa | 0 mm | 0.89 m/s, 213° | 0 W/m² | - |
| 1788095579 | 28.33° C | 79% | 1009 hPa | 0 mm | 0.45 m/s, 332° | 0 W/m² | - |
| 1788095518 | 28.33° C | 79% | 1009.1 hPa | 0 mm | 0.89 m/s, 256° | 0 W/m² | - |
| 1788095457 | 28.33° C | 79% | 1009 hPa | 0 mm | 0.45 m/s, 231° | 0 W/m² | - |
| 1788095396 | 28.33° C | 79% | 1008.9 hPa | 0 mm | 0.89 m/s, 230° | 0 W/m² | - |
| 1788095348 | 28.33° C | 79% | 1008.8 hPa | 0 mm | 1.34 m/s, 233° | 0 W/m² | - |
| 1788095274 | 28.33° C | 79% | 1008.8 hPa | 0 mm | 1.79 m/s, 294° | 0 W/m² | - |
* Rain latest hour (hover to see other rain measurements)
** Current wind speed in m/s (hover to see current wind gust speed)